Time,TemperatureF,DewpointF,PressureIn,WindDirection,WindDirectionDegrees,WindSpeedMPH,WindSpeedGustMPH,Humidity,HourlyPrecipIn,Conditions,Clouds,dailyrainin,SolarRadiationWatts/m^2,SoftwareType,DateUTC
2013-09-24 00:21:00,52.0,37.0,-100.00,East,91,0.0,2.0,56,0.00,,,0.00,0.000000,,2013-09-24 07:21:00,
2013-09-24 00:32:00,52.0,37.0,-100.00,East,91,0.0,2.0,56,0.00,,,0.00,0.000000,,2013-09-24 07:32:00,
2013-09-24 00:43:00,52.0,37.0,-100.00,East,91,0.0,2.0,56,0.00,,,0.00,0.000000,,2013-09-24 07:43:00,
2013-09-24 00:52:00,52.0,37.0,-100.00,East,91,0.0,2.0,56,0.00,,,0.00,0.000000,,2013-09-24 07:52:00,
2013-09-24 01:22:00,51.0,35.0,-100.00,ESE,104,0.0,6.0,54,0.00,,,0.00,0.000000,,2013-09-24 08:22:00,
2013-09-24 01:32:00,51.0,35.0,-100.00,ESE,104,0.0,6.0,54,0.00,,,0.00,0.000000,,2013-09-24 08:32:00,
2013-09-24 01:42:00,51.0,35.0,-100.00,ESE,104,0.0,6.0,54,0.00,,,0.00,0.000000,,2013-09-24 08:42:00,
2013-09-24 01:52:00,51.0,35.0,-100.00,ESE,104,0.0,6.0,54,0.00,,,0.00,0.000000,,2013-09-24 08:52:00,
2013-09-24 02:21:00,52.0,33.0,-100.00,East,86,0.0,4.0,48,0.00,,,0.00,0.000000,,2013-09-24 09:21:00,
2013-09-24 02:33:00,52.0,33.0,-100.00,East,86,0.0,4.0,48,0.00,,,0.00,0.000000,,2013-09-24 09:33:00,
2013-09-24 02:43:00,52.0,33.0,-100.00,East,86,0.0,4.0,48,0.00,,,0.00,0.000000,,2013-09-24 09:43:00,
2013-09-24 02:53:00,52.0,33.0,-100.00,East,86,0.0,4.0,48,0.00,,,0.00,0.000000,,2013-09-24 09:53:00,
2013-09-24 03:23:00,51.0,32.0,-100.00,East,97,0.0,5.0,48,0.00,,,0.00,0.000000,,2013-09-24 10:23:00,
2013-09-24 03:33:00,51.0,32.0,-100.00,East,97,0.0,5.0,48,0.00,,,0.00,0.000000,,2013-09-24 10:33:00,
2013-09-24 03:42:00,51.0,32.0,-100.00,East,97,0.0,5.0,48,0.00,,,0.00,0.000000,,2013-09-24 10:42:00,
2013-09-24 03:53:00,51.0,32.0,-100.00,East,97,0.0,5.0,48,0.00,,,0.00,0.000000,,2013-09-24 10:53:00,
2013-09-24 04:22:00,52.0,31.0,-100.00,East,96,0.0,5.0,45,0.00,,,0.00,0.000000,,2013-09-24 11:22:00,
2013-09-24 04:33:00,52.0,31.0,-100.00,East,96,0.0,5.0,45,0.00,,,0.00,0.000000,,2013-09-24 11:33:00,
2013-09-24 04:42:00,52.0,31.0,-100.00,East,96,0.0,5.0,45,0.00,,,0.00,0.000000,,2013-09-24 11:42:00,
2013-09-24 04:52:00,52.0,31.0,-100.00,East,96,0.0,5.0,45,0.00,,,0.00,0.000000,,2013-09-24 11:52:00,
2013-09-24 05:22:00,50.0,30.0,-100.00,East,87,0.0,5.0,46,0.00,,,0.00,0.000000,,2013-09-24 12:22:00,
2013-09-24 05:32:00,50.0,30.0,-100.00,East,87,0.0,5.0,46,0.00,,,0.00,0.000000,,2013-09-24 12:32:00,
2013-09-24 05:42:00,50.0,30.0,-100.00,East,87,0.0,5.0,46,0.00,,,0.00,0.000000,,2013-09-24 12:42:00,
2013-09-24 05:52:00,50.0,30.0,-100.00,East,87,0.0,5.0,46,0.00,,,0.00,0.000000,,2013-09-24 12:52:00,
2013-09-24 06:22:00,47.0,28.0,-100.00,East,82,0.0,4.0,48,0.00,,,0.00,0.000000,,2013-09-24 13:22:00,
2013-09-24 06:32:00,47.0,28.0,-100.00,East,82,0.0,4.0,48,0.00,,,0.00,0.000000,,2013-09-24 13:32:00,
2013-09-24 06:42:00,47.0,28.0,-100.00,East,82,0.0,4.0,48,0.00,,,0.00,0.000000,,2013-09-24 13:42:00,
2013-09-24 06:52:00,47.0,28.0,-100.00,East,82,0.0,4.0,48,0.00,,,0.00,0.000000,,2013-09-24 13:52:00,
2013-09-24 07:21:00,50.0,28.0,-100.00,East,79,0.0,2.0,43,0.00,,,0.00,1.000000,,2013-09-24 14:21:00,
2013-09-24 07:32:00,50.0,28.0,-100.00,East,79,0.0,2.0,43,0.00,,,0.00,1.000000,,2013-09-24 14:32:00,
2013-09-24 07:42:00,50.0,28.0,-100.00,East,79,0.0,2.0,43,0.00,,,0.00,1.000000,,2013-09-24 14:42:00,
2013-09-24 07:52:00,50.0,28.0,-100.00,East,79,0.0,2.0,43,0.00,,,0.00,1.000000,,2013-09-24 14:52:00,
2013-09-24 08:22:00,54.0,29.0,-100.00,East,95,0.0,4.0,38,0.00,,,0.00,16.000000,,2013-09-24 15:22:00,
2013-09-24 08:33:00,54.0,29.0,-100.00,East,95,0.0,4.0,38,0.00,,,0.00,16.000000,,2013-09-24 15:33:00,
2013-09-24 08:43:00,54.0,29.0,-100.00,East,95,0.0,4.0,38,0.00,,,0.00,16.000000,,2013-09-24 15:43:00,
2013-09-24 08:53:00,54.0,29.0,-100.00,East,95,0.0,4.0,38,0.00,,,0.00,16.000000,,2013-09-24 15:53:00,
2013-09-24 11:52:00,78.0,40.0,-100.00,WSW,251,2.0,6.0,26,-99.99,,,0.00,712.000000,,2013-09-24 18:52:00,
2013-09-24 12:22:00,81.0,40.0,-100.00,SW,236,5.0,7.0,23,0.00,,,0.00,924.000000,,2013-09-24 19:22:00,
2013-09-24 12:32:00,81.0,40.0,-100.00,SW,236,5.0,7.0,23,0.00,,,0.00,924.000000,,2013-09-24 19:32:00,
2013-09-24 12:52:00,81.0,40.0,-100.00,SW,236,5.0,7.0,23,0.00,,,0.00,924.000000,,2013-09-24 19:52:00,
2013-09-24 13:22:00,82.0,42.0,-100.00,North,5,4.0,9.0,24,-99.99,,,0.00,1004.000000,,2013-09-24 20:22:00,
2013-09-24 13:32:00,82.0,42.0,-100.00,North,5,4.0,9.0,24,-99.99,,,0.00,1004.000000,,2013-09-24 20:32:00,
2013-09-24 13:42:00,82.0,42.0,-100.00,North,5,4.0,9.0,24,-99.99,,,0.00,1004.000000,,2013-09-24 20:42:00,
2013-09-24 13:52:00,82.0,42.0,-100.00,North,5,4.0,9.0,24,-99.99,,,0.00,1004.000000,,2013-09-24 20:52:00,
2013-09-24 14:22:00,81.0,41.0,-100.00,WSW,241,4.0,11.0,24,0.00,,,0.00,992.000000,,2013-09-24 21:22:00,
2013-09-24 14:33:00,81.0,41.0,-100.00,WSW,241,4.0,11.0,24,0.00,,,0.00,992.000000,,2013-09-24 21:33:00,
2013-09-24 15:23:00,82.0,41.0,-100.00,NW,315,4.0,12.0,23,0.00,,,0.00,910.000000,,2013-09-24 22:23:00,
2013-09-24 15:34:00,82.0,41.0,-100.00,NW,315,4.0,12.0,23,0.00,,,0.00,910.000000,,2013-09-24 22:34:00,
2013-09-24 15:43:00,82.0,41.0,-100.00,NW,315,4.0,12.0,23,0.00,,,0.00,910.000000,,2013-09-24 22:43:00,
2013-09-24 15:53:00,82.0,41.0,-100.00,NW,315,4.0,12.0,23,0.00,,,0.00,910.000000,,2013-09-24 22:53:00,
2013-09-24 16:22:00,80.0,44.0,-100.00,SSE,152,3.0,14.0,28,0.00,,,0.00,754.000000,,2013-09-24 23:22:00,
2013-09-24 16:33:00,80.0,44.0,-100.00,SSE,152,3.0,14.0,28,0.00,,,0.00,754.000000,,2013-09-24 23:33:00,
2013-09-24 16:43:00,80.0,44.0,-100.00,SSE,152,3.0,14.0,28,0.00,,,0.00,754.000000,,2013-09-24 23:43:00,
2013-09-24 16:53:00,80.0,44.0,-100.00,SSE,152,3.0,14.0,28,0.00,,,0.00,754.000000,,2013-09-24 23:53:00,
2013-09-24 17:22:00,79.0,44.0,-100.00,WSW,245,3.0,12.0,29,0.00,,,0.00,548.000000,,2013-09-25 00:22:00,
2013-09-24 17:32:00,79.0,44.0,-100.00,WSW,245,3.0,12.0,29,0.00,,,0.00,548.000000,,2013-09-25 00:32:00,
2013-09-24 17:42:00,79.0,44.0,-100.00,WSW,245,3.0,12.0,29,0.00,,,0.00,548.000000,,2013-09-25 00:42:00,
2013-09-24 17:52:00,79.0,44.0,-100.00,WSW,245,3.0,12.0,29,0.00,,,0.00,548.000000,,2013-09-25 00:52:00,
2013-09-24 18:21:00,76.0,43.0,-100.00,West,275,1.0,10.0,31,0.00,,,0.00,311.000000,,2013-09-25 01:21:00,
2013-09-24 18:32:00,76.0,43.0,-100.00,West,275,1.0,10.0,31,0.00,,,0.00,311.000000,,2013-09-25 01:32:00,
2013-09-24 18:42:00,76.0,43.0,-100.00,West,275,1.0,10.0,31,0.00,,,0.00,311.000000,,2013-09-25 01:42:00,
2013-09-24 18:52:00,76.0,43.0,-100.00,West,275,1.0,10.0,31,0.00,,,0.00,311.000000,,2013-09-25 01:52:00,
2013-09-24 19:21:00,67.0,42.0,-100.00,WSW,252,0.0,8.0,40,0.00,,,0.00,45.000000,,2013-09-25 02:21:00,
2013-09-24 19:32:00,67.0,42.0,-100.00,WSW,252,0.0,8.0,40,0.00,,,0.00,45.000000,,2013-09-25 02:32:00,
2013-09-24 19:42:00,67.0,42.0,-100.00,WSW,252,0.0,8.0,40,0.00,,,0.00,45.000000,,2013-09-25 02:42:00,
2013-09-24 19:52:00,67.0,42.0,-100.00,WSW,252,0.0,8.0,40,0.00,,,0.00,45.000000,,2013-09-25 02:52:00,
2013-09-24 20:23:00,61.0,42.0,-100.00,ESE,102,0.0,4.0,50,0.00,,,0.00,0.000000,,2013-09-25 03:23:00,
2013-09-24 20:33:00,61.0,42.0,-100.00,ESE,102,0.0,4.0,50,0.00,,,0.00,0.000000,,2013-09-25 03:33:00,
2013-09-24 20:44:00,61.0,42.0,-100.00,ESE,102,0.0,4.0,50,0.00,,,0.00,0.000000,,2013-09-25 03:44:00,
2013-09-24 20:54:00,61.0,42.0,-100.00,ESE,102,0.0,4.0,50,0.00,,,0.00,0.000000,,2013-09-25 03:54:00,
2013-09-24 21:24:00,59.0,42.0,-100.00,ESE,108,0.0,4.0,53,0.00,,,0.00,0.000000,,2013-09-25 04:24:00,
2013-09-24 21:34:00,59.0,42.0,-100.00,ESE,108,0.0,4.0,53,0.00,,,0.00,0.000000,,2013-09-25 04:34:00,
2013-09-24 21:43:00,59.0,42.0,-100.00,ESE,108,0.0,4.0,53,0.00,,,0.00,0.000000,,2013-09-25 04:43:00,
2013-09-24 21:54:00,59.0,42.0,-100.00,ESE,108,0.0,4.0,53,0.00,,,0.00,0.000000,,2013-09-25 04:54:00,
2013-09-24 22:23:00,57.0,38.0,-100.00,ESE,109,2.0,4.0,48,0.00,,,0.00,0.000000,,2013-09-25 05:23:00,
2013-09-24 22:33:00,57.0,38.0,-100.00,ESE,109,2.0,4.0,48,0.00,,,0.00,0.000000,,2013-09-25 05:33:00,
2013-09-24 22:44:00,57.0,38.0,-100.00,ESE,109,2.0,4.0,48,0.00,,,0.00,0.000000,,2013-09-25 05:44:00,
2013-09-24 22:53:00,57.0,38.0,-100.00,ESE,109,2.0,4.0,48,0.00,,,0.00,0.000000,,2013-09-25 05:53:00,
2013-09-24 23:23:00,57.0,36.0,-100.00,East,99,0.0,6.0,45,0.00,,,0.00,0.000000,,2013-09-25 06:23:00,
2013-09-24 23:32:00,57.0,36.0,-100.00,East,99,0.0,6.0,45,0.00,,,0.00,0.000000,,2013-09-25 06:32:00,
2013-09-24 23:42:00,57.0,36.0,-100.00,East,99,0.0,6.0,45,0.00,,,0.00,0.000000,,2013-09-25 06:42:00,
2013-09-24 23:52:00,57.0,36.0,-100.00,East,99,0.0,6.0,45,0.00,,,0.00,0.000000,,2013-09-25 06:52:00,